Погода в Долгом Острове

Россия / Чувашская Республика     55°07′03″N   47°32′57″E
темп.,
°C
ветер,
м/с
пор.,
м/с
влажн.,
%
обл.,
%
осадки,
мм/ч
давл.,
гПа
погр.,
м
17 июня, чт
чт1700:00+16с614924 0.0 1012592
03:00+13ссз411921 0.0 1015298
06:00+15ссз410850 0.0 1016350
09:00+19ссз46600 0.0 1017772
12:00+21ссз67491 0.0 10181803
15:00+21ссз68545 0.0 10191897
18:00+20сз376618 0.0 1020363
21:00+15сз37790 0.0 1021137
18 июня, пт
пт1800:00+13ссз410720 0.0 1023200
03:00+10с36840 0.0 1025101
06:00+13с47740 0.0 1026255
09:00+16с58595 0.0 1027990
12:00+18с57525 0.0 10271322
15:00+19с45505 0.0 10271355
18:00+19ссв136299 0.0 1027957
21:00+14зюз1169100 0.0 102711
19 июня, сб
сб1900:00+12зюз227337 0.0 102815
03:00+12зюз338014 0.0 102841
06:00+15з37779 0.0 1028208
09:00+20з4662100 0.0 1027542
12:00+23з56565 0.0 10261177
15:00+24з676048 0.0 10251341
18:00+23з58725 0.0 1024467
21:00+18зюз49910 0.0 1024147
20 июня, вс
вс2000:00+17з49940 0.0 1024169
03:00+16з49950 0.0 1025151
06:00+19зсз48840 0.0 1025227
09:00+24зсз46660 0.0 1024626
12:00+27сз34565 0.0 10231531
15:00+28сз345312 0.0 10221795
18:00+26сз24720 0.1 1022305
21:00+20зсз35890 0.1 102272
21 июня, пн
пн2100:00+19з23900 0.0 102329
03:00+18з22910 0.0 102329
06:00+20зсз35815 0.0 1023170
09:00+25зсз346275 0.0 1022658
12:00+28зсз234985 0.0 10211549
15:00+28зсз4455100 0.0 10211571
18:00+25зсз3670100 0.0 1021195
21:00+20зсз228524 0.0 102124